Regional Weather Roundup
Issued by NWS Albany, NY

Home | Current Version | Previous Version | Text Only | Print | Product List | Glossary On
Versions: 1 2 3 4 5 6 7 8 9 10 11 12 13 14 15 16 17 18 19 20 21 22 23 24 25 26 27
000
ASUS41 KALY 241610
RWRALY

NEW YORK STATE HOURLY WEATHER ROUNDUP
NATIONAL WEATHER SERVICE ALBANY NY
1200 PM EDT FRI OCT 24 2014

NOTE: "FAIR" INDICATES FEW OR NO CLOUDS BELOW 12,000 FEET WITH NO
SIGNIFICANT WEATHER AND/OR NO OBSTRUCTIONS TO VISIBILITY.

NYZ032-033-038>043-046>054-057>066-NYZ062>081-241700-
EAST


CITY           SKY/WX    TMP DP  RH WIND       PRES   REMARKS
ALBANY         DRIZZLE   47  44  90 NE3       29.86S FOG
GLENS FALLS    CLOUDY    46  43  89 CALM      29.85S
POUGHKEEPSIE   PTSUNNY   55  43  63 N12G17    29.81F
NEWBURGH       CLOUDY    54  46  76 N12G17    29.83S
MONTGOMERY       N/A     56  44  64 NE5       29.81S
WHITE PLAINS   PTSUNNY   55  42  61 NW14G24   29.79S
ISLIP          CLOUDY    54  47  77 NW14G24   29.76F
NEW YORK CITY  PTSUNNY   57  43  59 NW17      29.81S
CENTRAL PARK   PTSUNNY   57  41  55 MISG      29.84S
$$

NYZ005>009-017-018-044>046-055-056-241700-
CENTRAL


CITY           SKY/WX    TMP DP  RH WIND       PRES   REMARKS
FULTON         SUNNY     57  44  62 W14G21    29.94S
SYRACUSE       MOSUNNY   59  43  55 NW15      29.92F
ROME           MOSUNNY   55  44  66 W10       29.90F
ELMIRA         SUNNY     60  40  47 N12G17    29.94F
BINGHAMTON     SUNNY     55  40  56 NW15G25   29.90S
MONTICELLO     PTSUNNY   54  45  71 N17G23    29.86S
$$

NYZ026>034-041>043-241700-
NORTH


CITY           SKY/WX    TMP DP  RH WIND       PRES   REMARKS
WATERTOWN      SUNNY     57  41  55 CALM      29.92F
FORT DRUM      NOT AVBL
MASSENA          N/A     51  43  74 CALM      29.92F
SARANAC LAKE   CLOUDY    42  39  89 N6        29.86S
PLATTSBURGH    CLOUDY    49  40  71 N17       29.87S
$$

NYZ001>004-010>016-019>021-241700-
WEST


CITY           SKY/WX    TMP DP  RH WIND       PRES   REMARKS
NIAGARA FALLS  MOSUNNY   50  42  74 W7        30.02F
BUFFALO        MOSUNNY   52  41  66 SW10      30.02F
DUNKIRK        MOSUNNY   51  42  71 SW13G20   30.05F
JAMESTOWN      MOSUNNY   48  37  66 SW7       30.04S
WELLSVILLE     SUNNY     54  32  43 N10G20    30.00S
ROCHESTER      MOSUNNY   56  43  61 W10       29.98F
PENN YAN       SUNNY     57  38  48 VRB5G17   29.96F
$$

             KEY
       WCI = WIND CHILL INDEX
       VSB = VISIBILITY
       HX  = HEAT INDEX
$$



USA.gov is the U.S. government's official web portal to all federal, state and local government web resources and services.